7T31GM EGCC-EGAC

Flight info

Callsign 7T31GM
Flight time 0h 32m
Altitude 24000
Route ASMIM1S ASMIM L975 WAL M146 ERDUV Z198 MASOP M148 MAGEE DCT
Aircraft RJ1H/M-SDFGIRWY/LB1

Departure

Time 2026-04-30 18:56
Airport Manchester Airport (EGCC)

Arrival

Time 2026-04-30 19:28
Airport George Best Belfast City Airport (EGAC)
Time Latitude Longitude Altitude Speed Heading
2026-04-30 18:25 53.36213 -2.26482 255 ft 0 kts 321°
2026-04-30 18:36 53.36202 -2.26466 255 ft 2 kts 317°
2026-04-30 18:36 53.36183 -2.26431 255 ft 2 kts 299°
2026-04-30 18:37 53.36180 -2.26405 255 ft 2 kts 250°
2026-04-30 18:37 53.36185 -2.26390 255 ft 0 kts 230°
2026-04-30 18:37 53.36185 -2.26391 255 ft 0 kts 230°
2026-04-30 18:48 53.36179 -2.26402 255 ft 5 kts 230°
2026-04-30 18:49 53.36144 -2.26474 255 ft 10 kts 230°
2026-04-30 18:49 53.36100 -2.26562 255 ft 9 kts 231°
2026-04-30 18:49 53.36064 -2.26662 255 ft 11 kts 241°
2026-04-30 18:49 53.36028 -2.26746 255 ft 7 kts 228°
2026-04-30 18:50 53.35999 -2.26806 255 ft 8 kts 233°
2026-04-30 18:50 53.35947 -2.26842 255 ft 8 kts 164°
2026-04-30 18:50 53.35899 -2.26844 255 ft 8 kts 221°
2026-04-30 18:50 53.35862 -2.26916 255 ft 9 kts 230°
2026-04-30 18:51 53.35825 -2.27008 255 ft 10 kts 239°
2026-04-30 18:51 53.35794 -2.27117 255 ft 11 kts 270°
2026-04-30 18:51 53.35825 -2.27220 255 ft 9 kts 277°
2026-04-30 18:51 53.35795 -2.27310 255 ft 9 kts 231°
2026-04-30 18:52 53.35751 -2.27401 255 ft 11 kts 231°
2026-04-30 18:52 53.35703 -2.27500 255 ft 12 kts 231°
2026-04-30 18:52 53.35650 -2.27607 255 ft 13 kts 226°
2026-04-30 18:52 53.35572 -2.27735 251 ft 18 kts 224°
2026-04-30 18:53 53.35470 -2.27900 246 ft 23 kts 224°
2026-04-30 18:53 53.35349 -2.28096 240 ft 25 kts 224°
2026-04-30 18:53 53.35227 -2.28310 233 ft 26 kts 230°
2026-04-30 18:53 53.35112 -2.28549 228 ft 27 kts 231°
2026-04-30 18:54 53.35008 -2.28748 221 ft 11 kts 212°
2026-04-30 18:54 53.34948 -2.28717 222 ft 9 kts 143°
2026-04-30 18:54 53.34903 -2.28657 225 ft 8 kts 140°
2026-04-30 18:54 53.34868 -2.28607 220 ft 5 kts 139°
2026-04-30 18:55 53.34859 -2.28574 221 ft 3 kts 85°
2026-04-30 18:55 53.35128 -2.28007 232 ft 91 kts 51°
2026-04-30 18:55 53.35635 -2.26976 391 ft 128 kts 57°
2026-04-30 18:56 53.36830 -2.24561 1606 ft 135 kts 58°
2026-04-30 18:56 53.37437 -2.23293 1847 ft 152 kts 60°
2026-04-30 18:56 53.38193 -2.21939 2104 ft 169 kts 39°
2026-04-30 18:57 53.40588 -2.23071 2319 ft 220 kts 307°
2026-04-30 18:57 53.41439 -2.25338 2369 ft 244 kts 299°
2026-04-30 18:57 53.42316 -2.27781 2970 ft 244 kts 298°
2026-04-30 18:58 53.44011 -2.32610 4364 ft 237 kts 295°
2026-04-30 18:58 53.44825 -2.35026 4965 ft 237 kts 294°
2026-04-30 18:58 53.45631 -2.37444 5588 ft 238 kts 295°
2026-04-30 18:59 53.46979 -2.42511 6660 ft 237 kts 266°
2026-04-30 19:00 53.46316 -2.50698 8432 ft 238 kts 254°
2026-04-30 19:00 53.45991 -2.53429 9090 ft 240 kts 253°
2026-04-30 19:00 53.45306 -2.58959 10475 ft 245 kts 254°
2026-04-30 19:01 53.44622 -2.64822 11425 ft 272 kts 254°
2026-04-30 19:01 53.44252 -2.68044 11751 ft 291 kts 254°
2026-04-30 19:02 53.43451 -2.75098 12338 ft 323 kts 255°
2026-04-30 19:02 53.42596 -2.82761 12975 ft 341 kts 255°
2026-04-30 19:03 53.41741 -2.90590 13851 ft 346 kts 255°
2026-04-30 19:03 53.40850 -2.98563 14623 ft 350 kts 254°
2026-04-30 19:04 53.39923 -3.06631 15348 ft 355 kts 253°
2026-04-30 19:04 53.40313 -3.14900 16035 ft 379 kts 294°
2026-04-30 19:05 53.43738 -3.21793 16698 ft 390 kts 312°
2026-04-30 19:05 53.47653 -3.28189 17385 ft 395 kts 313°
2026-04-30 19:06 53.51609 -3.34666 18050 ft 399 kts 312°
2026-04-30 19:06 53.53577 -3.37981 18389 ft 402 kts 312°
2026-04-30 19:06 53.57467 -3.44785 18970 ft 404 kts 307°
2026-04-30 19:07 53.60879 -3.52237 19563 ft 406 kts 302°
2026-04-30 19:07 53.62512 -3.56124 19855 ft 407 kts 301°
2026-04-30 19:08 53.65739 -3.64003 20442 ft 410 kts 301°
2026-04-30 19:08 53.69010 -3.71944 21010 ft 414 kts 300°
2026-04-30 19:08 53.70661 -3.75940 21299 ft 416 kts 301°
2026-04-30 19:09 53.74021 -3.83938 21871 ft 419 kts 301°
2026-04-30 19:09 53.75692 -3.87980 22150 ft 420 kts 301°
2026-04-30 19:09 53.77367 -3.92044 22433 ft 422 kts 300°
2026-04-30 19:10 53.80730 -4.00224 22963 ft 425 kts 300°
2026-04-30 19:10 53.84139 -4.08462 23504 ft 429 kts 300°
2026-04-30 19:11 53.85856 -4.12512 23748 ft 432 kts 306°
2026-04-30 19:11 53.90521 -4.19107 24081 ft 443 kts 322°
2026-04-30 19:11 53.93077 -4.22086 24120 ft 448 kts 324°
2026-04-30 19:12 53.95705 -4.24954 24132 ft 450 kts 326°
2026-04-30 19:12 53.98355 -4.27789 24133 ft 449 kts 326°
2026-04-30 19:12 54.00996 -4.30586 24131 ft 447 kts 326°
2026-04-30 19:13 54.06276 -4.36257 24132 ft 449 kts 325°
2026-04-30 19:13 54.11521 -4.42022 24130 ft 448 kts 324°
2026-04-30 19:13 54.14126 -4.44942 24131 ft 449 kts 324°
2026-04-30 19:14 54.16752 -4.47843 24135 ft 449 kts 325°
2026-04-30 19:14 54.19376 -4.50731 24135 ft 449 kts 324°
2026-04-30 19:14 54.21858 -4.53930 24144 ft 447 kts 317°
2026-04-30 19:14 54.24221 -4.57456 23526 ft 450 kts 313°
2026-04-30 19:15 54.26302 -4.61373 22759 ft 441 kts 305°
2026-04-30 19:15 54.30300 -4.69222 21294 ft 435 kts 311°
2026-04-30 19:15 54.32413 -4.72889 20592 ft 431 kts 311°
2026-04-30 19:16 54.34489 -4.76559 19905 ft 426 kts 310°
2026-04-30 19:16 54.36517 -4.80229 19235 ft 421 kts 309°
2026-04-30 19:16 54.40465 -4.87514 17858 ft 412 kts 309°
2026-04-30 19:17 54.42388 -4.91129 17126 ft 408 kts 308°
2026-04-30 19:17 54.46180 -4.98251 15710 ft 400 kts 309°
2026-04-30 19:17 54.48057 -5.01753 15023 ft 396 kts 309°
2026-04-30 19:18 54.51125 -5.07514 13914 ft 389 kts 308°
2026-04-30 19:18 54.53540 -5.12106 12972 ft 383 kts 309°
2026-04-30 19:18 54.55318 -5.15472 12332 ft 377 kts 309°
2026-04-30 19:19 54.57066 -5.18800 11703 ft 372 kts 309°
2026-04-30 19:19 54.58791 -5.22076 11087 ft 367 kts 309°
2026-04-30 19:19 54.62177 -5.28486 9899 ft 356 kts 310°
2026-04-30 19:20 54.63826 -5.31633 9293 ft 350 kts 310°
2026-04-30 19:20 54.65446 -5.34735 8713 ft 343 kts 310°
2026-04-30 19:20 54.68575 -5.40649 7697 ft 329 kts 310°
2026-04-30 19:21 54.70102 -5.43532 7204 ft 312 kts 310°
2026-04-30 19:21 54.72665 -5.48402 5993 ft 253 kts 310°
2026-04-30 19:22 54.75021 -5.52915 4700 ft 258 kts 309°
2026-04-30 19:22 54.77723 -5.60602 2830 ft 225 kts 255°
2026-04-30 19:23 54.75694 -5.67277 2056 ft 187 kts 223°
2026-04-30 19:24 54.74085 -5.70432 2002 ft 171 kts 218°
2026-04-30 19:24 54.73260 -5.71912 2005 ft 171 kts 218°
2026-04-30 19:24 54.71604 -5.74907 1997 ft 173 kts 219°
2026-04-30 19:25 54.69003 -5.78679 1578 ft 145 kts 206°
2026-04-30 19:26 54.67494 -5.80462 1232 ft 122 kts 206°
2026-04-30 19:26 54.66082 -5.82110 877 ft 124 kts 209°
2026-04-30 19:26 54.65385 -5.82946 746 ft 121 kts 212°
2026-04-30 19:27 54.63961 -5.84670 415 ft 130 kts 216°
2026-04-30 19:27 54.62514 -5.86408 53 ft 124 kts 211°
2026-04-30 19:28 54.61865 -5.87181 20 ft 100 kts 213°
2026-04-30 19:28 54.61316 -5.87806 14 ft 6 kts 128°